Regional Weather Roundup
Issued by NWS

Home | Current Version | Previous Version | Text Only | Print | Product List | Glossary Off
Versions: 1 2 3 4 5 6 7 8 9 10 11 12 13 14 15 16 17 18 19 20 21 22 23 24 25 26 27 28 29 30 31 32 33 34 35 36 37 38 39 40 41 42 43 44 45 46 47 48 49 50

535
ASUS43 KMKX 071800
RWRWI

WISCONSIN REGIONAL WEATHER ROUNDUP
NATIONAL WEATHER SERVICE MILWAUKEE/SULLIVAN WI
1200 PM CST WED DEC 07 2016

NOTE: "FAIR" INDICATES FEW OR NO CLOUDS BELOW 12,000 FEET WITH NO
SIGNIFICANT WEATHER AND/OR OBSTRUCTIONS TO VISIBILITY.

WIZ001-002-006>008-014>016-023>028-071900-
NORTHWEST WISCONSIN

CITY           SKY/WX    TMP DP  RH WIND       PRES   REMARKS
SUPERIOR ARPT  CLOUDY    20  11  67 W18G32    29.86R WCI   5
ASHLAND        LGT SNOW  20  12  71 SW21G29   29.82R WCI   4
6HR MIN TEMP:  18; 6HR MAX TEMP:  20; 6HR PCP: TRACE;

HAYWARD        LGT SNOW  17   9  70 SW16G24   29.86S WCI   2
6HR MIN TEMP:  15; 6HR MAX TEMP:  17; 6HR PCP: TRACE;

SIREN          FLURRIES  19  10  68 W16G30    29.93S WCI   4
CUMBERLAND     FLURRIES  19  10  68 W17G31    29.91F WCI   4
RICE LAKE      CLOUDY    20  11  69 SW21G26   29.95S WCI   4
6HR MIN TEMP:  17; 6HR MAX TEMP:  20;

CHETEK         FLURRIES  20  11  70 W14G25    29.94F WCI   6
LADYSMITH      LGT SNOW  20  13  75 W15G24    29.90F WCI   6
6HR MIN TEMP:  18; 6HR MAX TEMP:  20;

EAU CLAIRE     NOT AVBL
MENOMONIE      FLURRIES  22  14  72 SW16G26   29.99S WCI   8
6HR MIN TEMP:  17; 6HR MAX TEMP:  22;

NEW RICHMOND   FLURRIES  20  10  65 W23G31    29.98S WCI   3
OSCEOLA        FLURRIES  20  11  67 W16G26    30.02F WCI   6
$$

WIZ003>005-009-010-017-018-071900-
NORTH CENTRAL WISCONSIN

CITY           SKY/WX    TMP DP  RH WIND       PRES   REMARKS
MANITOWISH WTR LGT SNOW  16  10  77 SW18G28   29.76S WCI   0
ARBOR VITAE    LGT SNOW  19  13  76 W16G26    29.78S WCI   5
WOODRUFF       LGT SNOW  19  13  76 W16G26    29.78S WCI   5
RHINELANDER    LGT SNOW  18  12  77 W23G33    29.80S WCI   0
6HR MIN TEMP:  17; 6HR MAX TEMP:  18; 6HR PCP: TRACE;

EAGLE RIVER    LGT SNOW  17  10  73 W17G29    29.76S WCI   2
LAND O LAKES   LGT SNOW  18  10  71 W16G25    29.76S WCI   3
PHILLIPS       LGT SNOW  16  11  80 W13G22    29.82F WCI   3
6HR MIN TEMP:  15; 6HR MAX TEMP:  17;

TOMAHAWK       LGT SNOW  17  10  75 W13G25    29.85S WCI   4
MEDFORD        LGT SNOW  16  10  77 W20G25    29.88S WCI   0
MERRILL        LGT SNOW  19  12  76 W21G29    29.88S WCI   2
6HR MIN TEMP:  16; 6HR MAX TEMP:  19;

$$

WIZ029-030-035-036-043>047-071900-
CENTRAL WISCONSIN

CITY           SKY/WX    TMP DP  RH WIND       PRES   REMARKS
WAUSAU         LGT SNOW  19  13  77 W16G28    29.89S WCI   4
6HR MIN TEMP:  16; 6HR MAX TEMP:  20; 6HR PCP: TRACE;

MOSINEE        LGT SNOW  19  16  86 W23G29    29.90F WCI   2
MARSHFIELD     CLOUDY    20  12  71 W21G28    29.92R WCI   4
6HR MIN TEMP:  16; 6HR MAX TEMP:  20; 6HR PCP: TRACE;

STEVENS POINT  CLOUDY    21  12  68 W13G22    29.93S WCI   8
WAUPACA        MOSUNNY   27  15  62 SW20G28   29.96S WCI  13
6HR MIN TEMP:  21; 6HR MAX TEMP:  28;

WAUTOMA        FLURRIES  22  15  75 W18G25    29.98S WCI   7
6HR MIN TEMP:  18; 6HR MAX TEMP:  22; 6HR PCP:  0.12;

WISC RAPIDS    CLOUDY    22  14  71 W14G26    29.96S WCI   9
6HR MIN TEMP:  17; 6HR MAX TEMP:  23;

CAMP DOUGLAS   PTSUNNY   21  12  68 W14       30.01F WCI   8
$$

WIZ011>013-019>022-031-037>040-048>050-071900-
NORTHEAST WISCONSIN

CITY           SKY/WX    TMP DP  RH WIND       PRES   REMARKS
ANTIGO         FLURRIES  17  11  77 W18G28    29.84S WCI   1
SHAWANO        CLOUDY    25  15  64 W13G24    29.91S WCI  14
6HR MIN TEMP:  22; 6HR MAX TEMP:  25;

OCONTO         PTSUNNY   24  13  63 W18G31    29.89F WCI  10
STURGEON BAY   CLOUDY    25  16  68 W20G28    29.87F WCI  11
6HR MIN TEMP:  23; 6HR MAX TEMP:  25; 6HR PCP:  0.04;

GREEN BAY      MOSUNNY   27  17  66 W18G28    29.92S WCI  14
6HR MIN TEMP:  23; 6HR MAX TEMP:  27; 6HR PCP: TRACE;

MANITOWOC      NOT AVBL
APPLETON       PTSUNNY   25  14  63 W16G25    29.92F WCI  12
CLINTONVILLE   PTSUNNY   27  14  59 W10G22    29.91F WCI  17
OSHKOSH        PTSUNNY   23  14  68 W13G25    29.95F WCI  11
6HR MIN TEMP:  20; 6HR MAX TEMP:  23;

$$

WIZ032>034-041-042-053>061-071900-
SOUTHWEST WISCONSIN

CITY           SKY/WX    TMP DP  RH WIND       PRES   REMARKS
LA CROSSE      CLOUDY    23  12  62 W15       30.07F WCI  10
6HR MIN TEMP:  19; 6HR MAX TEMP:  24; 6HR PCP: TRACE;

SPARTA         CLOUDY    21  13  72 W14G20    30.04F WCI   8
VIROQUA        MOSUNNY   17  11  77 W14G23    30.04S WCI   3
6HR MIN TEMP:  14; 6HR MAX TEMP:  17;

BOSCOBEL       PTSUNNY   21  11  65 W13       30.11S WCI   9
6HR MIN TEMP:  19; 6HR MAX TEMP:  21; 6HR PCP: TRACE;

PRAIRIE DU CHI CLOUDY    19  10  65 W14       30.13S WCI   6
PLATTEVILLE    CLOUDY    20  14  77 W18       30.10S WCI   5
$$

WIZ056-057-062-063-064-067-068-071900-
SOUTH CENTRAL WISCONSIN

CITY           SKY/WX    TMP DP  RH WIND       PRES   REMARKS
REEDSBURG      MOSUNNY   20  12  72 W15       30.04S WCI   6
6HR MIN TEMP:  17; 6HR MAX TEMP:  20;

BARABOO/DELLS  MOSUNNY   20  12  71 W14       30.02S WCI   7
LONE ROCK      NOT AVBL
MINERAL POINT  MOSUNNY   21  14  73 W21G28    30.05S WCI   6
MADISON        PTSUNNY   22  12  65 W10G18    30.03F WCI  11
6HR MIN TEMP:  19; 6HR MAX TEMP:  22;

MIDDLETON      NOT AVBL
WATERTOWN      MOSUNNY   22  15  75 SW13      30.02F WCI  10
MONROE         CLOUDY    21  14  73 W23       30.05S WCI   5
JANESVILLE     PTSUNNY   25  18  74 W14G21    30.06F WCI  13
$$

WIZ051-052-058>065-066-070>072-071900-
SOUTHEAST WISCONSIN

CITY           SKY/WX    TMP DP  RH WIND       PRES   REMARKS
MILWAUKEE      PTSUNNY   29  15  56 W15       30.00F WCI  18
6HR MIN TEMP:  23; 6HR MAX TEMP:  29;

WAUKESHA       SUNNY     23  14  68 MISG      30.01F
MILWAUKEE/TIMM SUNNY     27  14  59 W17       30.01F WCI  14
RACINE         MOSUNNY   27  16  63 W13G23    30.03F WCI  16
6HR MIN TEMP:  22; 6HR MAX TEMP:  28;

BURLINGTON     MOSUNNY   26  18  73 W13G21    30.04S WCI  14
KENOSHA        PTSUNNY   27  18  69 W17       30.03F WCI  14
6HR MIN TEMP:  23; 6HR MAX TEMP:  27;

FOND DU LAC    MOSUNNY   23  13  65 W13G22    29.98F WCI  11
6HR MIN TEMP:  20; 6HR MAX TEMP:  24;

SHEBOYGAN      SUNNY     25  15  66 W24G30    29.94F WCI   9
6HR MIN TEMP:  22; 6HR MAX TEMP:  25;

WEST BEND      NOT AVBL
JUNEAU         CLOUDY    20  13  74 SW17      30.02F WCI   5
$$

LSZ147-162-071900-
LAKE SUPERIOR

STATION/POSITION TIME  TEMP    WIND        PRES    WAVE
                       AIR SEA DIR/SP/G            HT/PER
                 (UTC) (F)     (DEG/KT/KT) (MB)    (FT/S)
DEVILS ISLAND    1700   24     250/ 32/ 38 1007.7R
PORT WING        1740   21     230/ 16/ 24 1010.2R
SAXON HARBOR     1740   21     220/ 14/ 19 1009.5R
$$

LMZ867-665-643>646-071900-
LAKE MICHIGAN

STATION/POSITION TIME  TEMP    WIND        PRES    WAVE
                       AIR SEA DIR/SP/G            HT/PER
                 (UTC) (F)     (DEG/KT/KT) (MB)    (FT/S)
CHAMBERS ISLAND  1740   24     230/ 13/ 24 1010.2F
NORTHPORT PIER   1740   26     250/ 14/ 22 1010.5F
SISTER BAY       1639   27     280/ 24/ 30   N/A
KEWAUNEE LAKESHO 1730   25     260/ 18/ 25 1012.5S
SHEBOYGAN LAKESH 1700   24     260/ 22/ 25 1015.6F
PORT WASHINGTON  1740   27     260/ 16/ 22 1015.9F
MILWAUKEE LAKESH 1730   27     250/ 12/ 16   N/A
KENOSHA   LAKESH 1700   26     250/ 17/ 23 1017.6
$$

TC  - TEMPERATURE IN CELSIUS
VSB - VISIBILITY IN STATUTE MILES
WCI - WIND CHILL INDEX
HX  - HEAT INDEX





USA.gov is the U.S. government's official web portal to all federal, state and local government web resources and services.